When you browse on this site, cookies collect data to enhance your experience and personalize the content and advertising you see.
Visit our Privacy Policy to learn more. By continuing to use the site, you agree to this use of cookies and data.
  • In United Kingdom
  • List of Countries
  • For 7 days
  • Water Temperature
  • Weather Map
  • Weather Widgets
  • user-avatar
    Login

    Hourly Weather Sydney

    Today, 29 February, Saturday

    Time Temperature Precipitation Wind Pressure Humidity
    00:00 +21°C° 0 mm 2 mps 762 mmHg 72%
    01:00 +21°C° 0 mm 2 mps 761 mmHg 72%
    02:00 +21°C° 0 mm 2 mps 761 mmHg 73%
    03:00 +21°C° 0 mm 2 mps 761 mmHg 74%
    04:00 +21°C° 0 mm 1 mps 761 mmHg 73%
    05:00 +21°C° 0 mm 1 mps 762 mmHg 73%
    06:00 +21°C° 0 mm 1 mps 762 mmHg 74%
    07:00 +21°C° 0 mm 1 mps 762 mmHg 74%
    08:00 +23°C° 0 mm 1 mps 762 mmHg 66%
    09:00 +26°C° 0 mm 2 mps 762 mmHg 57%
    10:00 +28°C° 0 mm 2 mps 761 mmHg 48%
    11:00 +29°C° 0 mm 3 mps 761 mmHg 46%
    12:00 +29°C° 0 mm 3 mps 761 mmHg 44%
    13:00 +30°C° 0 mm 4 mps 760 mmHg 42%
    14:00 +29°C° 0 mm 5 mps 760 mmHg 47%
    15:00 +28°C° 0 mm 5 mps 759 mmHg 51%
    16:00 +27°C° 0 mm 6 mps 759 mmHg 56%
    17:00 +26°C° 0 mm 6 mps 759 mmHg 60%
    18:00 +25°C° 0 mm 5 mps 759 mmHg 65%
    19:00 +23°C° 0 mm 5 mps 760 mmHg 69%
    20:00 +22°C° 0 mm 5 mps 760 mmHg 73%
    21:00 +22°C° 0 mm 4 mps 760 mmHg 76%
    22:00 +21°C° 0 mm 4 mps 760 mmHg 80%
    23:00 +21°C° 0 mm 3 mps 760 mmHg 81%

    Tomorrow, 1 March, Sunday

    Time Temperature Precipitation Wind Pressure Humidity
    00:00 +21°C° 0 mm 3 mps 760 mmHg 81%
    01:00 +21°C° 0 mm 2 mps 760 mmHg 82%
    02:00 +20°C° 0 mm 2 mps 759 mmHg 83%
    03:00 +20°C° 0 mm 2 mps 759 mmHg 84%
    04:00 +20°C° 0 mm 2 mps 759 mmHg 84%
    05:00 +20°C° 0 mm 2 mps 759 mmHg 83%
    06:00 +22°C° 0 mm 1 mps 759 mmHg 81%
    07:00 +22°C° 0 mm 1 mps 759 mmHg 80%
    08:00 +24°C° 0 mm 2 mps 759 mmHg 71%
    09:00 +27°C° 0 mm 3 mps 759 mmHg 63%
    10:00 +29°C° 0 mm 3 mps 759 mmHg 54%
    11:00 +32°C° 0 mm 4 mps 759 mmHg 49%
    12:00 +33°C° 0 mm 5 mps 758 mmHg 43%
    13:00 +35°C° 0 mm 6 mps 757 mmHg 37%
    14:00 +34°C° 0 mm 6 mps 757 mmHg 42%
    15:00 +33°C° 0 mm 7 mps 756 mmHg 46%
    16:00 +33°C° 0 mm 7 mps 755 mmHg 51%
    17:00 +30°C° 0 mm 7 mps 755 mmHg 57%
    18:00 +29°C° 0 mm 7 mps 755 mmHg 64%
    19:00 +27°C° 0 mm 7 mps 756 mmHg 70%
    20:00 +27°C° 0 mm 6 mps 756 mmHg 71%
    21:00 +26°C° 0 mm 6 mps 756 mmHg 72%
    22:00 +25°C° 0 mm 5 mps 756 mmHg 73%
    23:00 +25°C° 0 mm 4 mps 756 mmHg 69%

    Day after tomorrow, 2 March, Monday

    Time Temperature Precipitation Wind Pressure Humidity
    00:00 +25°C° 0 mm 4 mps 755 mmHg 65%
    01:00 +24°C° 0 mm 3 mps 755 mmHg 61%
    02:00 +24°C° 0 mm 3 mps 755 mmHg 61%
    03:00 +22°C° 0 mm 3 mps 755 mmHg 61%
    04:00 +22°C° 0 mm 3 mps 755 mmHg 61%
    05:00 +22°C° 0 mm 3 mps 755 mmHg 57%
    06:00 +22°C° 0 mm 4 mps 756 mmHg 54%
    07:00 +22°C° 0 mm 4 mps 756 mmHg 50%
    08:00 +27°C° 0 mm 4 mps 756 mmHg 42%
    09:00 +30°C° 0 mm 4 mps 756 mmHg 33%
    10:00 +34°C° 0 mm 4 mps 757 mmHg 24%
    11:00 +34°C° 0 mm 5 mps 757 mmHg 27%
    12:00 +34°C° 0 mm 7 mps 757 mmHg 30%
    13:00 +35°C° 0 mm 9 mps 757 mmHg 33%
    14:00 +32°C° 0 mm 8 mps 757 mmHg 44%
    15:00 +29°C° 0 mm 8 mps 757 mmHg 55%
    16:00 +26°C° 0 mm 8 mps 757 mmHg 66%
    17:00 +24°C° 0 mm 8 mps 758 mmHg 69%
    18:00 +23°C° 0 mm 7 mps 759 mmHg 71%
    19:00 +22°C° 0 mm 7 mps 760 mmHg 74%
    20:00 +21°C° 0.1 mm 6 mps 761 mmHg 74%
    21:00 +21°C° 0.1 mm 6 mps 762 mmHg 73%
    22:00 +21°C° 0.1 mm 5 mps 763 mmHg 73%
    23:00 +20°C° 0 mm 5 mps 762 mmHg 72%

    3 March, Tuesday

    Time Temperature Precipitation Wind Pressure Humidity
    00:00 +20°C° 0 mm 5 mps 762 mmHg 70%
    01:00 +20°C° 0 mm 5 mps 762 mmHg 69%
    02:00 +20°C° 0 mm 5 mps 762 mmHg 69%
    03:00 +20°C° 0 mm 4 mps 762 mmHg 69%
    04:00 +20°C° 0 mm 4 mps 762 mmHg 69%
    05:00 +20°C° 0 mm 4 mps 763 mmHg 69%
    06:00 +20°C° 0 mm 4 mps 763 mmHg 70%
    07:00 +21°C° 0 mm 4 mps 763 mmHg 70%
    08:00 +21°C° 0 mm 4 mps 763 mmHg 69%
    09:00 +21°C° 0 mm 4 mps 764 mmHg 68%
    10:00 +22°C° 0 mm 4 mps 764 mmHg 67%
    11:00 +22°C° 0 mm 4 mps 764 mmHg 66%
    12:00 +22°C° 0 mm 4 mps 763 mmHg 65%
    13:00 +22°C° 0 mm 4 mps 763 mmHg 64%
    14:00 +22°C° 0 mm 4 mps 763 mmHg 66%
    15:00 +22°C° 0 mm 4 mps 763 mmHg 68%
    16:00 +22°C° 0 mm 4 mps 762 mmHg 69%
    17:00 +21°C° 0 mm 4 mps 763 mmHg 71%
    18:00 +21°C° 0 mm 4 mps 764 mmHg 73%
    19:00 +21°C° 0 mm 3 mps 764 mmHg 74%
    20:00 +21°C° 0.1 mm 4 mps 764 mmHg 76%
    21:00 +21°C° 0.1 mm 4 mps 765 mmHg 79%
    22:00 +21°C° 0.1 mm 4 mps 765 mmHg 81%
    23:00 +21°C° 0.1 mm 4 mps 764 mmHg 82%

    4 March, Wednesday

    Time Temperature Precipitation Wind Pressure Humidity
    00:00 +21°C° 0.1 mm 4 mps 764 mmHg 84%
    01:00 +21°C° 0.1 mm 4 mps 763 mmHg 85%
    02:00 +21°C° 0.4 mm 5 mps 763 mmHg 86%
    03:00 +21°C° 0.4 mm 5 mps 763 mmHg 87%
    04:00 +21°C° 0.4 mm 5 mps 762 mmHg 88%
    05:00 +21°C° 0.8 mm 6 mps 762 mmHg 88%
    06:00 +21°C° 0.8 mm 6 mps 762 mmHg 89%
    07:00 +21°C° 0.8 mm 6 mps 763 mmHg 90%
    08:00 +21°C° 1.8 mm 6 mps 762 mmHg 90%
    09:00 +21°C° 1.8 mm 6 mps 762 mmHg 89%
    10:00 +21°C° 1.8 mm 6 mps 762 mmHg 89%
    11:00 +22°C° 1.2 mm 6 mps 762 mmHg 90%
    12:00 +22°C° 1.2 mm 6 mps 761 mmHg 90%
    13:00 +22°C° 1.2 mm 6 mps 761 mmHg 90%
    14:00 +23°C° 1.2 mm 6 mps 760 mmHg 88%
    15:00 +24°C° 1.2 mm 6 mps 760 mmHg 85%
    16:00 +24°C° 1.2 mm 6 mps 759 mmHg 82%
    17:00 +24°C° 1.1 mm 7 mps 760 mmHg 84%
    18:00 +23°C° 1.1 mm 7 mps 760 mmHg 87%
    19:00 +23°C° 1.1 mm 7 mps 760 mmHg 90%
    20:00 +22°C° 1.6 mm 6 mps 760 mmHg 90%
    21:00 +22°C° 1.6 mm 6 mps 761 mmHg 89%
    22:00 +22°C° 1.6 mm 5 mps 761 mmHg 89%
    23:00 +22°C° 0.3 mm 4 mps 761 mmHg 90%

    5 March, Thursday

    Time Temperature Precipitation Wind Pressure Humidity
    00:00 +21°C° 0.3 mm 4 mps 760 mmHg 91%
    01:00 +21°C° 0.3 mm 3 mps 760 mmHg 92%
    02:00 +21°C° 0.1 mm 3 mps 760 mmHg 92%
    03:00 +21°C° 0.1 mm 2 mps 760 mmHg 92%
    04:00 +21°C° 0.1 mm 2 mps 760 mmHg 92%
    05:00 +21°C° 0 mm 2 mps 760 mmHg 90%
    06:00 +21°C° 0 mm 3 mps 760 mmHg 89%
    07:00 +21°C° 0 mm 3 mps 761 mmHg 87%
    08:00 +23°C° 0 mm 2 mps 761 mmHg 85%
    09:00 +23°C° 0 mm 2 mps 761 mmHg 83%
    10:00 +24°C° 0 mm 2 mps 761 mmHg 81%
    11:00 +24°C° 0 mm 1 mps 761 mmHg 78%
    12:00 +25°C° 0 mm 1 mps 760 mmHg 75%
    13:00 +25°C° 0 mm 1 mps 760 mmHg 71%
    14:00 +26°C° 0.1 mm 1 mps 760 mmHg 70%
    15:00 +26°C° 0.1 mm 1 mps 760 mmHg 69%
    16:00 +26°C° 0.1 mm 1 mps 760 mmHg 69%
    17:00 +25°C° 0 mm 1 mps 760 mmHg 72%
    18:00 +24°C° 0 mm 2 mps 760 mmHg 75%
    19:00 +24°C° 0 mm 3 mps 761 mmHg 78%
    20:00 +22°C° 0.2 mm 3 mps 761 mmHg 79%
    21:00 +22°C° 0.2 mm 3 mps 761 mmHg 80%
    22:00 +22°C° 0.2 mm 4 mps 762 mmHg 82%
    23:00 +22°C° 0.1 mm 3 mps 761 mmHg 83%
    Show more